Location: Shenandoah County Park
(38.9356°N, 78.4524°W)
Time: 12:35:43
(UTC-04:00)

Envisat - Pass Details

Date: 03 June 2024
Orbit: 762 x 764 km, 98.3° (Epoch: 14 June)

Event Time Altitude Azimuth Distance (km) Brightness Sun altitude
Rises 03:59:14 0° 20° (NNE) 3,232 7.6 -17.3°
Reaches altitude 10° 04:01:40 10° 27° (NNE) 2,302 6.7 -17.0°
Maximum altitude 04:06:29 43° 99° (E) 1,069 4.0 -16.3°
Drops below altitude 10° 04:11:15 10° 170° (S) 2,287 5.1 -15.7°
Enters shadow 04:11:25 - 170° (S) 2,349 5.2 -15.7°
